This demonstration page uses our WeatherBlox Daily Observations layout. Learn more.

Left ArrowRight Arrow

Hourly Observations for June 30, 2019

Temp ( °F °C ) Dew Point ( °F °C ) Humidity (%) Winds ( mph kmh ) Pressure ( in mb ) Visibility ( mi km ) Precip ( " mm )
12:53 am 00:53 Clear 77 25 49 9.4 37 37 SE 8 13 29.96 1015 10 16 0.00 0.00
1:53 am 01:53 Clear 75 23.9 49 9.4 40 40 SSE 7 11 29.95 1014 10 16 0.00 0.00
2:53 am 02:53 Clear 72 22.2 50 10 46 46 SE 7 11 29.94 1014 10 16 0.00 0.00
3:53 am 03:53 Clear 68 20 49 9.4 51 51 NW 3 6 29.93 1014 10 16 0.00 0.00
4:53 am 04:53 Clear 66 18.9 49 9.4 54 54 NNE 7 11 29.93 1014 10 16 0.00 0.00
5:53 am 05:53 Clear 64 17.8 49 9.4 58 58 NE 5 7 29.93 1014 10 16 0.00 0.00
6:53 am 06:53 Sunny 63 17.2 50 10 63 63 NNE 6 9 29.95 1014 10 16 0.00 0.00
7:53 am 07:53 Sunny 70 21.1 53 11.7 55 55 Calm 29.94 1014 10 16 0.00 0.00
8:53 am 08:53 Sunny 78 25.6 57 13.9 48 48 SE 6 9 29.95 1014 10 16 0.00 0.00
9:53 am 09:53 Sunny 81 27.2 56 13.3 42 42 S 3 6 29.95 1014 10 16 0.00 0.00
10:53 am 10:53 Sunny 86 30 54 12.2 33 33 Calm 29.93 1014 10 16 0.00 0.00
11:53 am 11:53 Sunny 90 32.2 50 10 25 25 WSW 5 7 29.93 1013 10 16 0.00 0.00
12:53 pm 12:53 Sunny 95 35 49 9.4 21 21 Calm 29.91 1013 10 16 0.00 0.00
1:53 pm 13:53 Sunny 96 35.6 48 8.9 19 19 undefined N/A 29.88 1012 10 16 0.00 0.00
2:53 pm 14:53 Sunny 98 36.7 47 8.3 17 17 VRB 5 7 29.86 1011 10 16 0.00 0.00
3:53 pm 15:53 Sunny 98 36.7 45 7.2 16 16 S 6 9 29.84 1011 10 16 0.00 0.00
4:25 pm 16:25 Mostly Cloudy with Nearby Thunderstorms 83 28.3 59 15 44 44 E 33 54 29.81 1009 6 10 0.02 0.51
4:29 pm 16:29 Mostly Cloudy with Nearby Thunderstorms 79 26.1 58 14.4 49 49 SE 23 37 29.82 1010 3 4 0.06 1.52
4:41 pm 16:41 Mostly Cloudy with Nearby Thunderstorms 86 30 60 15.6 42 42 SE 13 20 29.77 1008 10 16 0.06 1.52
4:53 pm 16:53 Partly Cloudy with Nearby Thunderstorms 91 32.8 57 13.9 32 32 SSE 9 15 29.84 1011 10 16 0.06 1.52
5:14 pm 17:14 Sunny 91 32.8 55 12.8 30 30 SE 20 31 29.74 1007 10 16 0.00 0.00
5:53 pm 17:53 Sunny 94 34.4 51 10.6 23 23 SSE 7 11 29.81 1010 10 16 0.00 0.00
6:53 pm 18:53 Sunny 90 32.2 54 12.2 29 29 S 20 31 29.82 1010 10 16 0.00 0.00
7:53 pm 19:53 Sunny 84 28.9 59 15 43 43 SSE 22 35 29.84 1011 10 16 0.00 0.00
8:53 pm 20:53 Sunny 81 27.2 57 13.9 44 44 S 9 15 29.83 1010 10 16 0.00 0.00
9:53 pm 21:53 Clear 78 25.6 59 15 52 52 SE 8 13 29.83 1010 10 16 0.00 0.00
10:53 pm 22:53 Clear 77 25 60 15.6 56 56 ESE 8 13 29.85 1011 10 16 0.00 0.00
11:53 pm 23:53 Clear 75 23.9 62 16.7 64 64 SE 8 13 29.86 1011 10 16 0.00 0.00

Powered by AerisWeather